011  
NZUS99 KDVN 241210  
HRRRRR  
HOURLY WEATHER ROUNDUP  
NATIONAL WEATHER SERVICE QUAD CITIES IA IL  
700 AM CDT MON APR 24 2017  
 
NOTE: "FAIR" INDICATES FEW OR NO CLOUDS BELOW 12,000 FEET WITH  
NO SIGNIFICANT WEATHER AND/OR OBSTRUCTIONS TO VISIBILITY.  
------------------------------------------------------------------  
 
CITY SKY/WX TMP DP RH WIND PRES REMARKS  
BURLINGTON CLOUDY 51 32 48 SE8 29.96R  
6HR MIN TEMP: 44; 6HR MAX TEMP: 51;  
 
CEDAR RAPIDS CLOUDY 45 34 65 SE8 29.94R WCI 41  
6HR MIN TEMP: 42; 6HR MAX TEMP: 51;  
 
DAVENPORT CLOUDY 46 31 55 E7 29.98R WCI 42  
6HR MIN TEMP: 43; 6HR MAX TEMP: 52;  
 
DUBUQUE CLOUDY 49 32 52 SE12 29.96S WCI 44  
6HR MIN TEMP: 45; 6HR MAX TEMP: 51;  
 
IOWA CITY CLOUDY 42 35 76 CALM 29.97R  
6HR MIN TEMP: 40; 6HR MAX TEMP: 48;  
 
MOLINE CLOUDY 40 35 83 E6 29.97S WCI 36  
6HR MIN TEMP: 38; 6HR MAX TEMP: 46;  
 
------------------------------------------------------------------  
THE STATIONS BELOW ARE NOT NWS STATIONS AND ARE NOT SUBJECT TO NWS  
QUALITY CONTROL. SOME STATIONS DO NOT REPORT WEATHER SUCH AS FOG.  
------------------------------------------------------------------  
 
CITY SKY/WX TMP DP RH WIND PRES REMARKS  
CLINTON CLOUDY 43 36 76 E7 29.99R WCI 39  
6HR MIN TEMP: 40; 6HR MAX TEMP: 52;  
 
FAIRFIELD PTCLDY 48 30 49 S6 29.95R WCI 46  
FORT MADISON CLOUDY 54 28 37 SE8 29.96F  
FREEPORT CLEAR 38 34 87 E6 30.02R WCI 33  
6HR MIN TEMP: 36; 6HR MAX TEMP: 49;  
 
INDEPENDENCE CLOUDY 43 34 70 SE9 29.92S WCI 37  
KEOKUK CLOUDY 48 34 57 SE8 29.96R WCI 45  
MACOMB CLEAR 41 34 76 CALM 30.01R  
6HR MIN TEMP: 39; 6HR MAX TEMP: 46;  
 
MONTICELLO CLOUDY 46 34 61 SE9 29.95S WCI 42  
MT PLEASANT CLOUDY 47 34 59 S6 29.96R WCI 45  
6HR MIN TEMP: 46; 6HR MAX TEMP: 49;  
 
MUSCATINE CLOUDY 41 36 81 CALM 29.97S  
SAVANNA CLEAR 42 37 81 NE5 30.00R WCI 39  
6HR MIN TEMP: 40; 6HR MAX TEMP: 47;  
 
STERLING/R.F. CLEAR 44 35 70 E3 30.01R  
6HR MIN TEMP: 41; 6HR MAX TEMP: 53;  
 
VINTON CLOUDY 50 32 50 S8 29.92S WCI 47  
WASHINGTON NOT AVBL  
------------------------------------------------------------------  
 
 
CLICK HERE TO GO TO PREVIOUS BULLETINS.

The Nexlab IL Page
The Nexlab IA Page
The Nexlab MO Page Main Text Page